Cullman, AL

8:53 PM CDT on June 24, 2017 (GMT -0500)
Cullman

Weather History for K3A1 - April, 2013

Change the Weather History Date:

Sunday, April 21, 2013

  Actual Average (KHSV) Record (KHSV)
Temperature  
Mean Temperature 52 °F -  
Max Temperature 67 °F 74 °F 90 °F (2002)
Min Temperature 36 °F 51 °F 30 °F (1983)
Degree Days  
Heating Degree Days 14    
Growing Degree Days 2 (Base 50)    
Moisture  
Dew Point 37 °F    
Average Humidity 55    
Maximum Humidity 93    
Minimum Humidity 33    
Precipitation  
Precipitation 0.00 in - - ()
Sea Level Pressure  
Sea Level Pressure 30.28 in    
Wind  
Wind Speed 3 mph (ENE)    
Max Wind Speed 9 mph    
Max Gust Speed 22 mph    
Visibility 10 miles    
Events      
Averages and records for this station are not official NWS values.
T = Trace of Precipitation, MM = Missing Value Source: NWS Daily Summary

Daily Weather History Graph

Daily Weather History Graph

Search for Another Location

Airport or City:

Trip Planner

Search our weather history database for the weather conditions in past years. The results will help you decide how hot, cold, wet, or windy it might be!

Date:

Astronomy

Apr. 21, 2013 Rise Set
Actual Time 6:08 AM CDT 7:24 PM CDT
Civil Twilight 5:42 AM CDT 7:50 PM CDT
Nautical Twilight 5:11 AM CDT 8:21 PM CDT
Astronomical Twilight 4:38 AM CDT 8:54 PM CDT
Moon 3:19 PM CDT (4/21) 3:18 AM CDT (4/21)
Length of Visible Light 14h 07m
Length of Day
13h 15m
Waxing Gibbous, 80% of the Moon is Illuminated
Apr 21
Waxing Gibbous
Apr 25
Full
May 2
Last Quarter
May 9
New
May 17
First Quarter

Hourly Weather History & Observations

Time (CDT) Temp. Windchill Dew Point Humidity Pressure Visibility Wind Dir Wind Speed Gust Speed Precip Events Conditions
12:15 AM 41.4 °F - 36.7 °F 83% 30.28 in 10.0 mi Calm Calm - N/A   Clear
12:35 AM 41.0 °F - 36.5 °F 84% 30.28 in 10.0 mi Calm Calm - N/A   Clear
12:55 AM 40.6 °F - 36.1 °F 84% 30.28 in 10.0 mi Calm Calm - N/A   Clear
1:15 AM 40.3 °F - 35.6 °F 83% 30.28 in 10.0 mi Calm Calm - N/A   Clear
1:35 AM 40.3 °F 38.2 °F 34.9 °F 81% 30.28 in 10.0 mi NE 3.5 mph - N/A   Clear
4:15 AM 37.0 °F - 34.0 °F 89% 30.29 in 10.0 mi Calm Calm - N/A   Clear
4:35 AM 36.9 °F - 34.7 °F 92% 30.29 in 10.0 mi Calm Calm - N/A   Clear
4:55 AM 37.4 °F - 35.1 °F 91% 30.28 in 10.0 mi Calm Calm - N/A   Clear
5:15 AM 37.4 °F - 35.4 °F 93% 30.29 in 10.0 mi Calm Calm - N/A   Clear
5:35 AM 36.3 °F - 34.2 °F 92% 30.29 in 10.0 mi Calm Calm - N/A   Clear
5:55 AM 36.1 °F - 34.0 °F 92% 30.29 in 10.0 mi Calm Calm - N/A   Clear
6:15 AM 36.5 °F - 34.3 °F 92% 30.29 in 10.0 mi Calm Calm - N/A   Clear
6:35 AM 37.0 °F - 34.9 °F 92% 30.30 in 10.0 mi Calm Calm - N/A   Clear
6:55 AM 40.3 °F 37.1 °F 34.7 °F 80% 30.30 in 10.0 mi NE 4.6 mph - N/A   Clear
7:15 AM 45.3 °F 41.6 °F 34.0 °F 65% 30.31 in 10.0 mi NE 6.9 mph - N/A   Clear
7:35 AM 47.3 °F - 32.5 °F 57% 30.31 in 10.0 mi NE 6.9 mph - N/A   Clear
7:55 AM 47.7 °F - 33.1 °F 57% 30.32 in 10.0 mi ENE 5.8 mph - N/A   Clear
8:15 AM 48.0 °F - 33.4 °F 57% 30.32 in 10.0 mi ENE 4.6 mph - N/A   Clear
8:35 AM 48.6 °F - 33.3 °F 56% 30.32 in 10.0 mi ENE 4.6 mph - N/A   Clear
8:55 AM 50.4 °F - 34.3 °F 54% 30.33 in 10.0 mi ENE 5.8 mph - N/A   Clear
9:15 AM 51.8 °F - 35.2 °F 53% 30.33 in 10.0 mi ENE 6.9 mph - N/A   Clear
9:35 AM 53.8 °F - 36.3 °F 52% 30.34 in 10.0 mi ENE 5.8 mph - N/A   Clear
9:55 AM 55.6 °F - 37.6 °F 51% 30.34 in 10.0 mi ESE 6.9 mph - N/A   Clear
10:15 AM 57.4 °F - 37.6 °F 48% 30.34 in 10.0 mi ENE 3.5 mph - N/A   Clear
10:35 AM 57.9 °F - 37.4 °F 46% 30.35 in 10.0 mi ENE 6.9 mph - N/A   Clear
10:55 AM 59.7 °F - 38.1 °F 45% 30.34 in 10.0 mi East 4.6 mph - N/A   Clear
11:15 AM 60.8 °F - 37.8 °F 42% 30.34 in 10.0 mi East 4.6 mph - N/A   Clear
11:35 AM 61.7 °F - 36.5 °F 39% 30.33 in 10.0 mi East 5.8 mph - N/A   Clear
11:55 AM 62.4 °F - 36.5 °F 38% 30.32 in 10.0 mi ESE 4.6 mph - N/A   Clear
12:15 PM 62.8 °F - 36.9 °F 38% 30.31 in 10.0 mi SE 4.6 mph - N/A   Clear
12:35 PM 64.2 °F - 39.2 °F 40% 30.31 in 10.0 mi ESE 6.9 mph - N/A   Clear
12:55 PM 64.0 °F - 37.4 °F 37% 30.30 in 10.0 mi ESE 8.1 mph - N/A   Clear
1:15 PM 64.6 °F - 37.6 °F 37% 30.29 in 10.0 mi East 9.2 mph - N/A   Clear
1:35 PM 64.9 °F - 38.5 °F 38% 30.28 in 10.0 mi East 8.1 mph 21.9 mph N/A   Clear
1:55 PM 66.0 °F - 38.1 °F 36% 30.27 in 10.0 mi East 8.1 mph - N/A   Clear
2:15 PM 65.7 °F - 36.1 °F 34% 30.26 in 10.0 mi NE 6.9 mph - N/A   Clear
2:35 PM 65.7 °F - 36.1 °F 34% 30.26 in 10.0 mi East 4.6 mph - N/A   Clear
2:55 PM 65.1 °F - 36.5 °F 35% 30.25 in 10.0 mi ENE 4.6 mph - N/A   Clear
3:15 PM 65.8 °F - 37.2 °F 35% 30.24 in 10.0 mi ENE 5.8 mph - N/A   Clear
3:35 PM 67.3 °F - 36.9 °F 33% 30.24 in 10.0 mi ENE 8.1 mph - N/A   Clear
3:55 PM 67.8 °F - 37.6 °F 33% 30.24 in 10.0 mi NE 9.2 mph - N/A   Clear
4:15 PM 67.5 °F - 39.2 °F 36% 30.23 in 10.0 mi East 8.1 mph - N/A   Clear
4:35 PM 67.6 °F - 39.2 °F 35% 30.23 in 10.0 mi NE 9.2 mph - N/A   Clear
4:55 PM 67.3 °F - 39.0 °F 35% 30.23 in 10.0 mi ESE 5.8 mph - N/A   Clear
5:15 PM 66.9 °F - 39.7 °F 37% 30.23 in 10.0 mi East 6.9 mph - N/A   Clear
5:35 PM 66.7 °F - 39.6 °F 37% 30.23 in 10.0 mi ENE 5.8 mph - N/A   Clear
5:55 PM 66.6 °F - 39.9 °F 38% 30.24 in 10.0 mi ENE 5.8 mph - N/A   Clear
6:15 PM 66.0 °F - 40.3 °F 39% 30.24 in 10.0 mi ENE 4.6 mph - N/A   Clear
6:35 PM 65.5 °F - 40.1 °F 39% 30.23 in 10.0 mi ENE 4.6 mph - N/A   Clear
6:55 PM 64.4 °F - 40.5 °F 41% 30.24 in 10.0 mi ENE 3.5 mph - N/A   Clear
7:15 PM 62.6 °F - 41.4 °F 46% 30.24 in 5.0 mi Calm Calm - N/A   Haze
7:35 PM 60.8 °F - 40.6 °F 47% 30.24 in 7.0 mi Calm Calm - N/A   Clear
7:55 PM 56.7 °F - 42.3 °F 59% 30.25 in 10.0 mi Calm Calm - N/A   Clear
8:15 PM 53.8 °F - 42.3 °F 65% 30.25 in 10.0 mi Calm Calm - N/A   Clear
8:35 PM 52.5 °F - 43.3 °F 71% 30.26 in 10.0 mi NE 3.5 mph - N/A   Clear
8:55 PM 53.6 °F - 42.3 °F 65% 30.26 in 10.0 mi NE 3.5 mph - N/A   Clear
9:15 PM 53.6 °F - 41.2 °F 63% 30.26 in 10.0 mi Calm Calm - N/A   Clear
9:35 PM 54.1 °F - 39.7 °F 58% 30.26 in 10.0 mi ENE 4.6 mph - N/A   Clear
9:55 PM 55.4 °F - 39.2 °F 54% 30.27 in 10.0 mi ENE 4.6 mph - N/A   Clear
10:15 PM 56.8 °F - 38.5 °F 50% 30.26 in 10.0 mi ENE 4.6 mph - N/A   Clear
10:35 PM 56.7 °F - 38.5 °F 51% 30.26 in 10.0 mi ENE 4.6 mph - N/A   Clear
10:55 PM 56.5 °F - 38.3 °F 51% 30.26 in 10.0 mi ENE 3.5 mph - N/A   Clear
11:15 PM 56.1 °F - 38.7 °F 52% 30.26 in 10.0 mi ENE 4.6 mph - N/A   Clear
11:35 PM 55.6 °F - 38.8 °F 53% 30.26 in 10.0 mi ENE 3.5 mph - N/A   Clear
11:55 PM 55.2 °F - 39.0 °F 54% 30.26 in 10.0 mi ENE 4.6 mph - N/A   Clear